Regional Weather Roundup
Issued by NWS Charleston, WV

Home | Current Version | Previous Version | Graphics & Text | Print | Product List | Glossary On
Versions: 1 2 3 4 5 6 7 8 9 10 11 12 13 14 15 16 17 18 19 20 21 22 23 24 25 26 27 28 29 30 31 32 33 34 35 36 37 38 39 40 41 42 43 44 45 46 47 48 49 50
000
ASUS41 KRLX 110010
RWRRLX
West Virginia Regional Weather Roundup
National Weather Service Charleston WV
800 PM EDT THU JUL 10 2014

Note: "fair" indicates few or no clouds below 12,000 feet with no
significant weather and/or obstructions to visibility.

WVZ003-110100-
Northern Panhandle of West Virginia

CITY           SKY/WX    TMP DP  RH WIND       PRES   REMARKS
WHEELING       CLEAR     76  58  53 NE6       30.11R
$$

WVZ009-110100-
Northwest West Virginia

CITY           SKY/WX    TMP DP  RH WIND       PRES   REMARKS
PARKERSBURG    MOCLDY    79  61  53 NW3       30.12R
$$

WVZ006-110100-
Western West Virginia

CITY           SKY/WX    TMP DP  RH WIND       PRES   REMARKS
HUNTINGTON     MOCLDY    79  60  52 N3        30.08R
$$

WVZ015-110100-
West Central West Virginia

CITY           SKY/WX    TMP DP  RH WIND       PRES   REMARKS
CHARLESTON     TSTM      79  67  66 N8        30.08R
$$

WVZ031-110100-
North Central West Virginia

CITY           SKY/WX    TMP DP  RH WIND       PRES   REMARKS
CLARKSBURG     PTCLDY    76  62  62 NE3       30.10R
MORGANTOWN     CLEAR     79  62  56 CALM      30.12R
$$

WVZ035-042-045-110100-
South Central West Virginia

CITY           SKY/WX    TMP DP  RH WIND       PRES   REMARKS
BECKLEY        MOCLDY    76  60  57 N8        30.16R
BLUEFIELD      MOCLDY    77  54  44 CALM      30.17R
LEWISBURG      PTCLDY    77  58  51 N6        30.14R
$$

WVZ047-110100-
Northern Mountains of West Virginia

CITY           SKY/WX    TMP DP  RH WIND       PRES   REMARKS
ELKINS         PTCLDY    74  59  59 NW7       30.14R
$$

WVZ052-110100-
Eastern Panhandle of West Virginia

CITY           SKY/WX    TMP DP  RH WIND       PRES   REMARKS
MARTINSBURG    MOCLDY    78  58  49 N3        30.09R
PETERSBURG     CLOUDY    68  61  76 CALM      30.13R
$$


USA.gov is the U.S. government's official web portal to all federal, state and local government web resources and services.